Wind_Speed
4 6 3 2 2 0 1 2 5 3 1 2 3 8 11 7 6 7 7 5 4 5 9 11 9 3 2 3 4 8 12 13 12 14 16 14 9 6 6 9 10 12 6 26
6 3 0 2 2 2 3 2 4 6 2 2 5 14 12 6 6 5 5 5 6 4 4 8 7 7 4 0 3 7 11 12 11 13 10 12 13 6 6 9 11 12 4 12
5 3 0 2 4 4 3 2 2 4 9 4 5 7 5 1 4 4 5 5 4 3 3 5 9 6 3 2 5 8 9 10 10 11 11 11 5 5 8 13 12 12 11 12
5 1 0 1 3 3 2 1 2 4 6 2 4 4 6 4 6 5 7 6 6 3 1 2 5 5 2 2 6 6 8 8 9 10 10 10 9 7 10 12 12 10 13 18
2 1 1 2 1 2 2 1 1 2 2 2 4 4 7 2 6 7 8 7 6 5 5 4 5 5 1 2 4 6 7 6 10 9 9 9 9 9 11 11 10 11 11 13
3 2 3 1 1 1 1 1 1 2 2 3 3 4 6 3 4 2 3 6 6 4 5 4 7 3 3 1 4 6 7 7 8 9 9 8 10 11 11 11 12 12 10 13
3 1 1 2 1 2 0 3 4 5 4 4 3 3 9 5 3 4 4 3 3 4 2 3 6 4 5 1 5 5 6 7 9 9 8 8 9 8 11 10 11 10 11 11
4 5 1 4 2 1 2 2 4 4 2 5 1 5 3 3 3 3 4 1 3 5 1 2 5 6 4 2 3 4 6 8 8 8 8 8 8 10 7 6 8 11 10 8
4 3 1 3 2 2 1 2 2 6 2 3 3 7 3 2 1 2 1 2 5 2 2 4 5 5 4 2 2 4 4 6 7 10 9 8 7 7 9 9 8 9 8 7
5 2 2 2 1 1 1 2 3 3 1 4 5 6 5 3 2 4 4 4 0 3 3 1 2 6 3 1 2 2 4 4 5 6 6 7 7 7 7 6 7 5 6 6
4 3 3 3 3 5 1 1 2 2 3 4 1 6 7 6 6 8 7 7 3 0 1 2 3 4 3 1 1 2 3 4 5 6 6 6 7 7 7 7 6 5 5 5
3 5 3 6 3 2 2 2 4 4 4 1 3 7 3 5 5 5 7 7 5 4 4 3 6 7 4 3 1 0 1 2 4 5 5 7 8 8 8 7 7 6 6 4
7 1 2 6 2 3 3 4 3 3 3 5 5 6 1 5 5 6 7 8 6 4 3 4 5 6 6 6 3 2 0 1 2 4 5 7 8 9 9 8 6 6 7 5
2 3 6 5 4 4 2 3 5 4 3 3 7 9 12 7 7 8 8 7 7 6 5 4 3 4 7 8 4 4 2 1 2 3 4 7 8 9 8 8 7 8 6 5
1 4 3 4 5 4 5 5 7 9 7 6 6 10 18 6 8 8 7 7 6 7 5 6 5 5 6 8 7 5 4 2 1 2 4 6 7 8 8 9 9 8 8 8
3 3 2 4 0 3 5 8 9 14 4 11 9 23 18 21 8 5 8 5 7 7 8 7 6 10 11 12 10 8 6 5 3 1 2 3 5 7 9 10 11 10 10 10
6 6 3 4 1 1 8 11 14 5 6 9 8 16 3 5 6 6 6 6 8 8 8 8 8 15 14 14 12 12 10 7 5 3 1 3 4 5 8 9 11 12 13 13
7 6 2 3 1 3 8 4 6 14 9 15 13 14 7 6 5 6 6 5 8 8 8 7 12 13 14 14 14 12 12 11 7 5 3 3 2 4 5 6 8 10 11 12
4 5 3 3 3 6 10 5 7 7 8 16 18 20 10 5 5 10 10 10 9 9 11 13 15 16 17 17 17 15 15 13 11 10 7 5 5 3 3 3 4 6 7 9
4 4 2 3 3 5 7 3 5 4 6 3 8 10 4 4 1 4 6 4 9 13 16 16 17 15 18 19 19 17 16 14 13 11 9 7 6 6 4 3 3 2 4 6
4 2 5 5 4 6 11 7 5 4 6 1 3 6 7 5 5 2 5 4 7 12 15 16 20 20 19 21 21 19 16 16 11 10 9 7 7 6 6 5 3 3 4 4
9 10 4 3 4 8 9 4 7 5 1 1 2 2 4 6 3 2 1 0 5 9 12 17 20 19 19 20 22 20 19 13 14 13 12 10 8 7 7 7 7 6 5 4
4 8 8 12 9 3 11 6 7 3 3 3 2 1 2 4 7 6 3 4 5 9 12 16 20 20 19 21 21 20 17 14 16 15 16 15 12 12 10 9 9 9 9 9
4 5 3 3 7 11 9 7 5 5 7 6 5 4 2 4 5 6 5 5 5 9 12 14 17 19 21 22 23 20 15 14 16 16 16 16 16 15 14 12 11 11 11 12
5 10 7 5 8 4 9 10 9 11 10 6 4 5 6 5 6 6 5 6 10 13 14 15 19 20 21 21 22 20 19 17 18 18 17 18 17 17 16 16 15 15 14 14
5 7 6 6 10 6 8 1 5 9 8 6 7 4 4 5 8 4 6 9 10 14 14 17 19 19 18 18 20 19 20 20 20 21 21 21 20 20 19 18 18 19 18 17
Wind_Direction
20 67 72 54 49 9 347 354 296 303 113 314 248 280 276 286 214 237 266 284 315 328 178 187 181 187 229 294 320 331 326 329 333 343 350 346 332 333 349 352 343 11 200 200
32 80 272 325 21 55 33 334 314 283 333 329 294 282 267 239 236 204 235 284 291 302 204 201 188 193 202 201 342 334 325 330 338 343 352 329 316 337 348 359 6 30 17 190
116 154 217 349 42 38 49 113 27 260 318 268 298 302 322 105 191 217 238 235 265 240 230 141 189 193 158 28 348 336 331 335 339 344 347 351 319 352 9 18 17 38 43 97
90 262 321 48 87 354 206 16 337 314 8 316 33 281 310 232 235 248 252 238 233 173 128 236 196 148 113 4 343 343 338 349 337 350 5 13 0 346 356 4 17 44 37 85
191 117 56 79 127 346 195 288 257 295 327 1 9 67 271 85 269 242 247 231 229 195 182 193 174 169 182 319 1 344 343 340 345 354 11 18 3 3 360 7 32 74 55 56
94 351 44 77 313 281 310 245 277 2 60 33 237 121 285 224 223 200 221 242 228 194 192 194 191 182 173 156 20 355 359 343 347 354 13 17 12 15 13 17 33 52 60 61
353 44 58 12 12 303 318 55 337 353 11 207 156 45 246 286 245 171 168 228 225 182 140 156 198 203 166 350 4 15 354 354 343 354 15 21 23 18 34 7 33 52 57 56
137 319 10 344 57 199 39 125 144 228 302 274 294 237 250 177 150 112 97 356 291 307 123 218 152 171 166 85 8 15 14 344 348 357 16 19 19 17 357 29 47 48 55 47
118 296 347 33 355 63 249 48 146 103 45 30 252 284 332 236 237 140 150 226 305 89 173 148 176 171 160 132 34 16 31 348 352 354 6 18 24 13 18 18 36 52 55 43
190 52 299 333 335 2 353 182 65 10 47 303 295 286 235 317 285 207 208 248 214 29 32 126 186 167 162 114 52 26 28 23 359 5 12 12 21 20 23 22 32 31 49 51
133 102 297 16 213 188 127 56 76 112 134 168 288 275 210 206 180 189 190 187 197 264 96 111 147 184 179 132 25 44 20 17 18 17 16 34 28 28 30 30 24 36 55 32
191 134 166 226 289 339 310 198 170 125 255 171 145 274 223 217 182 170 186 196 184 178 177 150 155 180 220 190 234 82 23 15 33 25 23 34 33 35 39 31 27 38 60 43
188 50 19 337 356 357 246 214 177 116 80 209 142 262 278 259 261 253 238 237 214 202 210 152 148 180 205 219 177 258 287 329 53 43 38 42 42 46 40 39 41 51 61 52
137 103 165 196 192 130 223 231 194 149 130 203 225 270 272 271 251 261 256 251 237 230 221 194 146 169 162 184 205 183 248 310 45 53 49 48 41 46 52 56 63 73 83 93
155 167 155 250 236 216 223 196 188 202 208 187 252 226 263 235 232 235 245 257 226 224 226 210 180 195 188 184 184 197 194 208 3 71 73 69 56 56 63 69 73 86 97 101
207 117 117 291 338 190 260 233 211 223 234 266 288 283 270 270 254 263 253 253 242 234 232 209 185 190 211 210 193 185 204 186 174 152 67 78 72 71 75 83 91 95 96 104
143 134 132 260 63 64 295 229 203 197 206 190 206 243 195 254 256 259 276 215 234 230 208 190 191 193 201 202 196 183 179 178 181 170 89 53 92 82 79 89 95 97 99 108
131 135 126 235 11 214 238 165 178 209 230 212 258 266 232 239 251 237 217 202 219 216 211 192 183 179 189 188 187 178 172 171 177 177 158 149 89 102 94 94 96 102 107 112
59 133 161 192 197 312 299 197 163 176 278 215 227 255 262 264 284 278 212 201 211 199 202 195 187 178 175 181 177 177 176 176 180 182 182 180 173 153 131 111 101 108 116 114
55 58 142 150 212 228 242 161 173 172 289 144 191 246 239 156 290 265 342 225 194 201 189 176 174 175 173 175 180 182 185 186 190 191 185 181 176 171 165 136 127 128 143 140
134 97 198 197 225 280 269 163 163 105 240 166 194 243 172 195 215 263 334 350 179 176 175 174 175 179 184 177 181 189 195 206 196 191 188 188 182 180 179 182 188 167 164 167
161 163 175 153 210 271 161 75 192 199 229 182 221 261 210 212 221 268 73 76 158 165 167 177 174 182 182 186 188 192 205 203 198 195 199 200 198 195 197 195 192 203 206 204
204 182 179 188 200 213 200 227 205 141 147 217 228 254 273 231 226 240 257 196 201 193 187 185 186 184 188 193 200 203 209 202 203 204 205 206 207 210 209 211 212 205 209 216
256 173 189 109 220 235 222 246 235 204 215 219 225 210 197 255 279 253 230 207 203 209 206 198 192 192 197 202 205 212 211 209 211 216 216 214 216 216 221 221 218 224 232 228
184 144 164 271 274 282 260 226 217 226 236 231 206 212 222 235 258 241 241 223 216 217 210 209 209 211 212 210 216 216 214 212 211 218 222 223 225 227 228 233 237 238 240 242
189 168 177 214 215 188 245 212 169 212 241 203 211 215 203 208 248 261 262 252 233 223 217 215 220 229 231 222 223 222 222 221 219 219 221 225 229 231 235 240 245 247 248 246
Height
824 840 851 846 843 840 840 840 845 833 836 835 834 834 823 818 818 817 816 815 812 810 809 810 811 811 812 813 813 812 810 806 804 801 798 795 793 790 786 785 784 779 776 779
836 847 846 842 839 840 841 843 849 843 834 837 835 826 816 815 813 812 810 811 811 810 810 810 811 810 810 811 811 810 809 806 804 802 799 797 793 790 787 784 780 775 774 774
838 848 843 843 844 843 851 847 856 861 848 836 835 828 808 806 807 808 809 809 809 809 808 810 810 809 809 810 810 810 808 806 804 801 799 796 792 791 788 784 781 775 773 772
849 846 845 843 847 850 843 853 852 852 862 842 836 850 825 811 811 811 812 812 810 807 807 808 807 809 809 808 809 808 807 806 804 801 799 797 795 793 788 786 781 773 775 771
849 849 847 844 851 851 849 853 852 851 855 854 842 866 828 811 812 813 812 812 807 807 807 806 807 807 807 807 808 808 806 805 803 801 799 798 797 794 789 786 784 777 780 776
855 853 855 854 852 852 851 852 853 851 862 895 845 854 831 817 805 804 807 809 807 806 807 806 806 806 806 807 807 807 806 804 802 800 798 798 795 795 793 789 785 781 781 780
856 855 857 856 854 853 852 856 889 869 878 867 851 864 826 807 802 802 804 807 806 807 807 806 806 805 806 806 806 807 805 803 801 800 798 797 795 795 795 792 788 788 785 785
865 857 859 859 858 854 853 857 884 860 867 864 854 840 809 800 802 800 802 804 804 806 808 805 804 805 805 805 806 806 807 803 801 800 798 796 794 792 795 797 795 789 788 789
872 860 862 862 860 861 853 871 861 892 920 887 849 824 804 801 800 802 802 802 805 806 807 806 805 804 804 804 805 805 806 805 803 799 798 797 795 794 793 791 790 790 789 788
851 859 870 865 862 860 858 858 869 889 866 863 855 835 820 799 798 801 802 802 804 805 805 806 806 805 805 804 805 805 805 805 804 803 801 799 797 795 793 792 791 791 790 790
857 856 869 870 873 861 867 871 861 866 873 881 890 830 814 795 792 798 800 800 801 803 805 806 807 806 805 804 804 805 804 804 803 803 802 799 797 796 795 794 793 792 790 791
844 853 870 866 868 864 860 847 854 870 872 892 883 840 796 799 796 796 799 797 797 799 802 804 805 806 805 805 804 804 804 803 803 802 802 800 798 796 795 794 793 792 792 793
841 857 875 856 866 869 863 855 849 860 871 880 866 833 799 803 800 798 798 799 797 797 800 801 803 806 805 805 805 804 804 803 803 803 802 800 798 797 796 795 794 794 793 795
834 864 849 842 835 853 865 864 855 859 891 860 844 820 797 810 810 799 800 800 799 798 799 800 802 803 805 805 805 805 805 806 805 804 804 802 800 798 797 796 795 794 795 797
838 851 873 869 848 841 849 854 861 860 841 835 813 828 785 805 800 796 795 791 795 798 799 799 800 801 803 804 804 806 806 807 807 806 805 804 802 801 799 798 797 797 798 797
835 845 861 860 864 855 853 845 850 843 852 844 833 812 783 776 786 795 792 794 792 792 792 794 794 797 799 801 802 804 806 807 808 808 808 807 805 804 803 802 801 801 801 801
833 844 849 840 869 858 839 825 827 832 828 821 824 778 777 777 777 780 779 783 787 786 783 785 788 791 795 798 801 801 803 806 808 808 809 809 808 807 806 805 804 803 802 803
829 838 844 840 858 827 800 800 806 808 801 809 794 781 780 775 773 773 774 775 777 780 779 779 781 786 791 795 799 802 802 804 807 808 808 809 810 810 809 808 807 807 807 806
823 832 842 837 866 822 790 801 806 801 775 780 782 771 773 775 773 765 764 766 767 769 771 774 778 781 785 792 796 800 801 803 805 806 807 808 809 811 811 811 811 810 809 809
830 830 824 842 829 814 788 788 792 791 788 760 775 771 774 777 776 770 761 760 761 764 767 770 775 780 782 787 792 797 800 801 802 804 805 807 807 808 811 812 812 813 812 812
838 841 832 826 819 809 786 790 791 796 771 760 764 767 772 775 767 763 761 759 760 763 766 769 773 776 780 783 788 792 796 797 800 802 803 805 806 807 808 810 812 813 814 814
814 822 832 830 828 810 784 791 782 763 763 760 763 762 764 765 763 762 760 761 762 763 765 768 771 775 778 782 785 788 792 796 798 800 802 803 805 807 808 809 810 811 813 815
790 783 799 793 785 768 773 760 761 762 761 760 761 761 761 762 763 762 761 762 763 764 765 767 768 772 776 778 782 785 788 793 796 798 799 801 803 805 806 808 810 809 810 812
787 778 789 785 769 767 764 760 762 760 759 758 758 758 760 761 761 762 761 761 763 764 765 767 770 771 773 776 778 781 785 789 792 795 798 800 801 802 804 805 806 808 809 810
770 772 784 780 765 762 757 756 753 754 753 753 755 756 757 760 760 760 760 759 759 762 763 765 768 768 770 773 775 778 781 783 786 790 793 796 798 799 800 802 803 804 805 807
761 762 760 759 745 741 737 739 744 750 750 750 751 752 753 755 757 758 758 757 758 759 760 761 763 766 768 770 772 775 777 779 781 783 786 789 792 794 796 798 800 800 801 802